DW3765 Weather Reports


Display with metric or nautical units.
time (UTC)temp
F
wind
direction
speed
MPH
gust
MPH
rain 1hr
in
rain 24hr
in
rain mn
in
humidity
%
barometer
mb
20260903205704 98 28 2.0 10.0 0.00 0.00 0.00 43 1011.3
20260903205125 98 98 7.0 10.0 0.00 0.00 0.00 42 1011.4
20260903204742 98 115 7.0 11.0 0.00 0.00 0.00 42 1011.4
20260903204134 98 115 4.0 8.0 0.00 0.00 0.00 45 1011.5
20260903203657 98 111 5.0 8.0 0.00 0.00 0.00 44 1011.6
20260903202637 98 196 4.0 11.0 0.00 0.00 0.00 45 1011.9
20260903202200 98 86 4.0 11.0 0.00 0.00 0.00 45 1011.9
20260903201717 98 115 6.0 11.0 0.00 0.00 0.00 45 1012.0
20260903201214 98 123 5.0 9.0 0.00 0.00 0.00 44 1012.0
20260903200719 98 114 4.0 8.0 0.00 0.00 0.00 47 1012.0
20260903200217 98 175 3.0 7.0 0.00 0.00 0.00 45 1012.0
20260903195722 98 80 3.0 7.0 0.00 0.00 0.00 45 1012.1
20260903195133 96 144 1.0 10.0 0.00 0.00 0.00 45 1012.1
20260903194644 96 103 4.0 10.0 0.00 0.00 0.00 47 1012.2
20260903193638 96 53 4.0 9.0 0.00 0.00 0.00 46 1012.3
20260903193153 96 164 4.0 12.0 0.00 0.00 0.00 47 1012.3
20260903192144 95 202 8.0 15.0 0.00 0.00 0.00 48 1012.5
20260903191703 96 163 3.0 11.0 0.00 0.00 0.00 48 1012.6
20260903190638 95 187 5.0 11.0 0.00 0.00 0.00 48 1012.8
20260903190205 95 215 3.0 10.0 0.00 0.00 0.00 50 1012.8
20260903185715 95 197 4.0 10.0 0.00 0.00 0.00 49 1013.1
20260903184633 95 196 7.0 11.0 0.00 0.00 0.00 49 1013.3
20260903184157 94 117 6.0 11.0 0.00 0.00 0.00 49 1013.4
20260903183714 94 194 5.0 11.0 0.00 0.00 0.00 52 1013.5
20260903183137 93 140 5.0 11.0 0.00 0.00 0.00 51 1013.5
20260903182738 93 234 4.0 11.0 0.00 0.00 0.00 52 1013.5
20260903182208 93 202 6.0 11.0 0.00 0.00 0.00 51 1013.7
20260903181700 93 136 7.0 12.0 0.00 0.00 0.00 53 1013.9
20260903181212 93 160 6.0 12.0 0.00 0.00 0.00 53 1013.8
20260903180706 92 142 6.0 13.0 0.00 0.00 0.00 54 1013.9
20260903180212 92 91 6.0 13.0 0.00 0.00 0.00 57 1013.9
20260903175715 92 152 7.0 16.0 0.00 0.00 0.00 55 1014.0
20260903175214 92 157 6.0 11.0 0.00 0.00 0.00 54 1014.0
20260903174708 92 224 5.0 16.0 0.00 0.00 0.00 55 1014.0
20260903174151 92 94 8.0 16.0 0.00 0.00 0.00 56 1014.1
20260903173702 92 216 6.0 12.0 0.00 0.00 0.00 57 1014.2
20260903173210 91 196 6.0 13.0 0.00 0.00 0.00 59 1014.3
20260903172631 91 194 8.0 13.0 0.00 0.00 0.00 58 1014.3
20260903172146 91 128 5.0 11.0 0.00 0.00 0.00 61 1014.4
20260903171702 91 146 5.0 11.0 0.00 0.00 0.00 62 1014.4
20260903171125 90 135 8.0 11.0 0.00 0.00 0.00 60 1014.5
20260903170639 90 167 7.0 11.0 0.00 0.00 0.00 60 1014.6
20260903170201 90 215 4.0 12.0 0.00 0.00 0.00 63 1014.6
20260903165719 89 190 5.0 12.0 0.00 0.00 0.00 63 1014.7
20260903165134 89 159 5.0 14.0 0.00 0.00 0.00 63 1014.7
20260903164657 88 174 8.0 14.0 0.00 0.00 0.00 64 1014.8
20260903164215 88 164 6.0 11.0 0.00 0.00 0.00 66 1014.8
20260903163634 88 138 7.0 11.0 0.00 0.00 0.00 64 1014.9
20260903163152 88 181 6.0 13.0 0.00 0.00 0.00 66 1014.9
20260903162718 87 152 5.0 13.0 0.00 0.00 0.00 68 1014.8
20260903162128 87 194 6.0 11.0 0.00 0.00 0.00 68 1015.0
20260903161640 87 218 5.0 11.0 0.00 0.00 0.00 68 1014.9
20260903161201 87 131 5.0 14.0 0.00 0.00 0.00 69 1015.0
20260903160138 87 171 6.0 12.0 0.00 0.00 0.00 70 1014.9
20260903155703 87 215 8.0 12.0 0.00 0.00 0.00 70 1014.9
20260903155220 86 216 7.0 12.0 0.00 0.00 0.00 71 1014.8
20260903154628 86 236 7.0 13.0 0.00 0.00 0.00 71 1014.8
20260903154155 86 215 7.0 14.0 0.00 0.00 0.00 70 1014.8
20260903153652 86 246 5.0 14.0 0.00 0.00 0.00 72 1014.8
20260903153147 85 208 8.0 14.0 0.00 0.00 0.00 71 1014.8
20260903152709 85 201 9.0 14.0 0.00 0.00 0.00 72 1014.8
20260903152222 85 215 9.0 14.0 0.00 0.00 0.00 71 1014.8
20260903151634 85 187 5.0 13.0 0.00 0.00 0.00 73 1014.8
20260903151156 85 182 6.0 12.0 0.00 0.00 0.00 73 1014.8
20260903150712 85 223 6.0 13.0 0.00 0.00 0.00 73 1014.8
20260903145636 84 209 5.0 11.0 0.00 0.00 0.00 76 1014.8
20260903145152 83 218 7.0 18.0 0.00 0.00 0.00 76 1015.0
20260903144139 83 218 8.0 15.0 0.00 0.00 0.00 77 1015.0
20260903143642 83 209 7.0 14.0 0.00 0.00 0.00 78 1014.8
20260903143207 82 177 7.0 14.0 0.00 0.00 0.00 79 1014.8
20260903142703 82 189 7.0 14.0 0.00 0.00 0.00 79 1015.0
20260903142211 82 191 6.0 18.0 0.00 0.00 0.00 79 1015.0
20260903141625 82 169 7.0 15.0 0.00 0.00 0.00 80 1015.0
20260903141128 82 246 7.0 14.0 0.00 0.00 0.00 80 1015.0
20260903140648 82 209 5.0 13.0 0.00 0.00 0.00 81 1015.0
20260903140150 82 209 7.0 12.0 0.00 0.00 0.00 81 1015.1
20260903135627 81 205 5.0 12.0 0.00 0.00 0.00 82 1015.0
20260903135141 81 202 5.0 10.0 0.00 0.00 0.00 83 1015.1
20260903134704 81 190 3.0 9.0 0.00 0.00 0.00 84 1015.2
20260903134137 80 161 3.0 8.0 0.00 0.00 0.00 85 1015.2
20260903133648 80 175 4.0 8.0 0.00 0.00 0.00 85 1015.1
20260903132625 80 186 5.0 8.0 0.00 0.00 0.00 85 1015.2
20260903132136 79 213 4.0 9.0 0.00 0.00 0.00 85 1015.1
20260903131633 79 180 5.0 9.0 0.00 0.00 0.00 85 1015.2
20260903131134 79 223 4.0 8.0 0.00 0.00 0.00 85 1015.1
20260903130654 79 202 4.0 8.0 0.00 0.00 0.00 85 1015.1
20260903130131 79 192 5.0 12.0 0.00 0.00 0.00 85 1015.1
20260903125654 79 169 4.0 10.0 0.00 0.00 0.00 85 1015.0
20260903125152 79 183 5.0 10.0 0.00 0.00 0.00 85 1014.8
20260903124708 79 202 4.0 10.0 0.00 0.00 0.00 85 1014.8
20260903124128 79 194 5.0 10.0 0.00 0.00 0.00 85 1014.9
20260903123640 79 186 5.0 13.0 0.00 0.00 0.00 86 1014.8
20260903123206 79 178 5.0 13.0 0.00 0.00 0.00 86 1014.7
20260903122720 79 196 4.0 8.0 0.00 0.00 0.00 86 1014.7
20260903122128 79 211 5.0 10.0 0.00 0.00 0.00 86 1014.7
20260903121652 79 181 4.0 9.0 0.00 0.00 0.00 86 1014.6
20260903120639 79 173 4.0 6.0 0.00 0.00 0.00 87 1014.6
20260903120147 79 154 2.0 7.0 0.00 0.00 0.00 87 1014.6
20260903115658 79 198 4.0 8.0 0.00 0.00 0.00 87 1014.6
20260903115150 79 155 4.0 8.0 0.00 0.00 0.00 87 1014.6
20260903114135 79 154 2.0 8.0 0.00 0.00 0.00 87 1014.5
20260903113647 79 195 5.0 8.0 0.00 0.00 0.00 87 1014.5
20260903113207 79 185 4.0 12.0 0.00 0.00 0.00 87 1014.5
20260903112718 79 185 5.0 12.0 0.00 0.00 0.00 86 1014.4
20260903112129 79 178 5.0 11.0 0.00 0.00 0.00 86 1014.3
20260903111651 79 215 5.0 10.0 0.00 0.00 0.00 86 1014.3
20260903111206 79 213 5.0 11.0 0.00 0.00 0.00 86 1014.4
20260903110226 79 173 5.0 11.0 0.00 0.00 0.00 86 1014.3
20260903105721 79 173 6.0 12.0 0.00 0.00 0.00 86 1014.3
20260903105218 79 179 6.0 12.0 0.00 0.00 0.00 86 1014.3
20260903104627 79 183 6.0 14.0 0.00 0.00 0.00 86 1014.4
20260903104239 79 187 7.0 14.0 0.00 0.00 0.00 86 1014.4
20260903103628 79 140 7.0 13.0 0.00 0.00 0.00 86 1014.4
20260903103140 79 187 6.0 13.0 0.00 0.00 0.00 86 1014.4
20260903102703 79 170 8.0 13.0 0.00 0.00 0.00 87 1014.5
20260903102155 79 183 4.0 9.0 0.00 0.00 0.00 87 1014.3
20260903101651 80 142 5.0 9.0 0.00 0.00 0.00 87 1014.5
20260903101207 80 165 5.0 8.0 0.00 0.00 0.00 87 1014.5
20260903100705 80 157 5.0 11.0 0.00 0.00 0.00 87 1014.5
20260903095718 80 167 5.0 14.0 0.00 0.00 0.00 87 1014.4
20260903095208 80 174 6.0 14.0 0.00 0.00 0.00 87 1014.5
20260903094700 79 196 5.0 13.0 0.00 0.00 0.00 87 1014.4
20260903094137 79 178 6.0 12.0 0.00 0.00 0.00 87 1014.5
20260903093634 79 228 8.0 12.0 0.00 0.00 0.00 87 1014.4
20260903093141 79 180 5.0 11.0 0.00 0.00 0.00 87 1014.5
20260903092709 79 161 4.0 10.0 0.00 0.00 0.00 87 1014.5
20260903092123 79 159 4.0 10.0 0.00 0.00 0.00 87 1014.5
20260903091647 79 164 5.0 15.0 0.00 0.00 0.00 87 1014.4
20260903091201 79 175 6.0 15.0 0.00 0.00 0.00 87 1014.4
20260903090718 79 196 4.0 8.0 0.00 0.00 0.00 87 1014.4
20260903090141 79 162 5.0 8.0 0.00 0.00 0.00 87 1014.5
20260903085640 79 125 4.0 9.0 0.00 0.00 0.00 87 1014.5
20260903085155 79 123 5.0 9.0 0.00 0.00 0.00 87 1014.5
20260903084719 79 162 4.0 9.0 0.00 0.00 0.00 87 1014.5
20260903084128 79 150 5.0 9.0 0.00 0.00 0.00 87 1014.6
20260903083641 79 178 5.0 9.0 0.00 0.00 0.00 87 1014.5
20260903083206 79 142 5.0 8.0 0.00 0.00 0.00 87 1014.5
20260903082700 79 173 5.0 8.0 0.00 0.00 0.00 86 1014.4
20260903082214 79 169 4.0 9.0 0.00 0.00 0.00 86 1014.4
20260903081630 79 146 5.0 8.0 0.00 0.00 0.00 86 1014.6
20260903081145 79 145 4.0 7.0 0.00 0.00 0.00 85 1014.6
20260903080649 79 88 4.0 6.0 0.00 0.00 0.00 85 1014.7
20260903080204 80 131 2.0 6.0 0.00 0.00 0.00 84 1014.6
20260903075718 80 158 3.0 8.0 0.00 0.00 0.00 84 1014.6
20260903075222 80 136 6.0 8.0 0.00 0.00 0.00 84 1014.6
20260903074631 80 151 2.0 7.0 0.00 0.00 0.00 84 1014.6
20260903074154 80 116 3.0 7.0 0.00 0.00 0.00 83 1014.7
20260903073707 80 126 3.0 7.0 0.00 0.00 0.00 83 1014.7
20260903073219 80 139 3.0 11.0 0.00 0.00 0.00 83 1014.7
20260903072635 80 162 6.0 11.0 0.00 0.00 0.00 83 1014.6
20260903072153 80 130 4.0 8.0 0.00 0.00 0.00 82 1014.5
20260903071705 80 150 2.0 8.0 0.00 0.00 0.00 81 1014.5
20260903071210 80 128 2.0 6.0 0.00 0.00 0.00 81 1014.6
20260903070722 81 113 3.0 6.0 0.00 0.00 0.00 81 1014.6
20260903070133 81 123 3.0 7.0 0.00 0.00 0.00 81 1014.7
20260903065623 81 127 4.0 10.0 0.00 0.00 0.00 80 1014.7
20260903065149 81 156 7.0 10.0 0.00 0.00 0.00 80 1014.7
20260903064628 81 142 6.0 10.0 0.00 0.00 0.00 80 1014.7
20260903064134 81 161 6.0 11.0 0.00 0.00 0.00 80 1014.6
20260903063642 81 149 5.0 11.0 0.00 0.00 0.00 79 1014.6
20260903063146 81 165 6.0 11.0 0.00 0.00 0.00 79 1014.7
20260903062624 81 125 6.0 11.0 0.00 0.00 0.00 79 1014.7
20260903062131 81 148 5.0 10.0 0.00 0.00 0.00 78 1014.7
20260903061626 82 111 5.0 11.0 0.00 0.00 0.00 78 1014.7
20260903061133 82 141 7.0 11.0 0.00 0.00 0.00 78 1014.7
20260903060641 82 136 5.0 11.0 0.00 0.00 0.00 78 1014.7
20260903060126 82 139 5.0 11.0 0.00 0.00 0.00 77 1014.7
20260903055626 82 168 6.0 10.0 0.00 0.00 0.00 77 1014.7
20260903055129 83 138 5.0 10.0 0.00 0.00 0.00 76 1014.7
20260903054638 83 138 4.0 10.0 0.00 0.00 0.00 76 1014.8
20260903054142 83 129 5.0 10.0 0.00 0.00 0.00 75 1014.8
20260903053649 83 135 5.0 7.0 0.00 0.00 0.00 74 1015.0
20260903053146 83 131 3.0 9.0 0.00 0.00 0.00 74 1014.8
20260903052633 84 147 6.0 9.0 0.00 0.00 0.00 73 1014.7
20260903052140 84 121 5.0 9.0 0.00 0.00 0.00 72 1014.7
20260903051648 84 150 5.0 9.0 0.00 0.00 0.00 72 1014.6
20260903051155 84 141 6.0 13.0 0.00 0.00 0.00 71 1014.6
20260903050631 84 136 6.0 13.0 0.00 0.00 0.00 70 1014.5
20260903050139 85 124 6.0 11.0 0.00 0.00 0.00 71 1014.2
20260903045631 85 160 5.0 11.0 0.00 0.00 0.00 70 1014.3
20260903045154 85 130 5.0 10.0 0.00 0.00 0.00 69 1014.2
20260903044711 85 104 7.0 11.0 0.00 0.00 0.00 69 1014.2
20260903044233 85 134 5.0 12.0 0.00 0.00 0.00 69 1014.2
20260903043625 86 124 7.0 12.0 0.00 0.00 0.00 68 1014.0
20260903043142 86 136 6.0 10.0 0.00 0.00 0.00 68 1014.1
20260903042710 86 138 5.0 10.0 0.00 0.00 0.00 67 1014.1
20260903042208 86 116 6.0 12.0 0.00 0.00 0.00 67 1014.2
20260903041719 86 130 7.0 12.0 0.00 0.00 0.00 67 1014.2
20260903041145 87 126 7.0 12.0 0.00 0.00 0.00 66 1014.0
20260903040626 87 114 6.0 10.0 0.00 0.00 0.00 66 1014.0
20260903040146 87 96 6.0 14.0 0.00 0.00 0.00 65 1013.9
20260903035134 87 155 6.0 12.0 0.00 0.00 0.00 64 1013.8
20260903034644 87 109 7.0 12.0 0.00 0.00 0.00 64 1013.8
20260903033742 87 111 7.0 12.0 0.00 0.00 0.00 61 1013.7
20260903033130 87 121 6.0 11.0 0.00 0.00 0.00 60 1013.6
20260903032654 87 158 4.0 10.0 0.00 0.00 0.00 58 1013.4
20260903031636 87 129 7.0 13.0 0.00 0.00 0.00 57 1013.2
20260903031157 86 114 8.0 13.0 0.00 0.00 0.00 57 1013.2
20260903030135 86 123 0.0 2.0 0.00 0.00 0.00 59 1012.9
20260903025657 86 123 0.0 2.0 0.00 0.00 0.00 60 1012.9
20260903024631 86 123 1.0 2.0 0.00 0.00 0.00 57 1012.7
20260903024143 87 123 1.0 2.0 0.00 0.00 0.00 55 1012.6
20260903023137 87 123 0.0 0.0 0.00 0.00 0.00 56 1012.5
20260903022655 88 123 0.0 0.0 0.00 0.00 0.00 56 1012.5
20260903022200 88 123 0.0 1.0 0.00 0.00 0.00 56 1012.5
20260903021655 88 123 0.0 1.0 0.00 0.00 0.00 55 1012.4
20260903020633 89 123 0.0 0.0 0.00 0.00 0.00 54 1012.3
20260903020157 89 123 0.0 0.0 0.00 0.00 0.00 53 1012.2
20260903015657 90 123 0.0 2.0 0.00 0.00 0.00 52 1012.2
20260903015157 90 123 1.0 4.0 0.00 0.00 0.00 51 1012.1
20260903014711 90 123 2.0 3.0 0.00 0.00 0.00 49 1012.0
20260903014221 90 123 2.0 3.0 0.00 0.00 0.00 48 1012.0
20260903013638 91 123 2.0 4.0 0.00 0.00 0.00 48 1012.0
20260903013157 91 123 2.0 4.0 0.00 0.00 0.00 48 1012.0
20260903012707 92 123 0.0 4.0 0.00 0.00 0.00 47 1012.0
20260903012210 92 123 1.0 3.0 0.00 0.00 0.00 46 1012.0
20260903011719 93 123 2.0 4.0 0.00 0.00 0.00 45 1011.9
20260903011216 93 123 3.0 4.0 0.00 0.00 0.00 45 1011.9
20260903010709 93 123 2.0 4.0 0.00 0.00 0.00 44 1011.9
20260903010202 94 123 3.0 5.0 0.00 0.00 0.00 43 1011.9
20260903005703 94 123 3.0 5.0 0.00 0.00 0.00 43 1011.9
20260903005126 95 123 2.0 4.0 0.00 0.00 0.00 42 1011.9
20260903004732 95 123 3.0 5.0 0.00 0.00 0.00 42 1012.0
20260903004208 96 123 3.0 4.0 0.00 0.00 0.00 41 1012.0
20260903003705 96 123 2.0 3.0 0.00 0.00 0.00 41 1011.9
20260903002706 97 123 2.0 5.0 0.00 0.00 0.00 40 1011.9
20260903002205 97 123 2.0 5.0 0.00 0.00 0.00 40 1012.1
20260903001658 97 122 3.0 7.0 0.00 0.00 0.00 39 1011.9
20260903001209 97 137 4.0 7.0 0.00 0.00 0.00 38 1012.0
20260903000730 97 121 5.0 8.0 0.00 0.00 0.00 38 1012.0
20260903000201 98 147 3.0 6.0 0.00 0.00 0.00 38 1012.0
20260902235711 98 169 2.0 6.0 0.00 0.00 0.00 38 1012.0
20260902235130 98 169 3.0 9.0 0.00 0.00 0.00 37 1012.1
20260902234652 98 152 5.0 8.0 0.00 0.00 0.00 36 1012.0
20260902234148 98 172 5.0 7.0 0.00 0.00 0.00 36 1012.2
20260902233650 98 151 4.0 8.0 0.00 0.00 0.00 38 1012.1
20260902233205 98 146 4.0 9.0 0.00 0.00 0.00 36 1012.1
20260902232710 98 188 4.0 9.0 0.00 0.00 0.00 37 1012.1
20260902232218 98 144 4.0 8.0 0.00 0.00 0.00 38 1012.2
20260902231631 98 153 3.0 9.0 0.00 0.00 0.00 37 1012.1
20260902231156 99 162 5.0 8.0 0.00 0.00 0.00 36 1012.0
20260902230707 99 191 4.0 11.0 0.00 0.00 0.00 38 1012.0
20260902230148 99 223 6.0 11.0 0.00 0.00 0.00 38 1012.1
20260902225202 99 215 1.0 11.0 0.00 0.00 0.00 37 1011.9
20260902224703 99 220 4.0 11.0 0.00 0.00 0.00 38 1012.0
20260902224216 99 175 5.0 7.0 0.00 0.00 0.00 37 1012.0
20260902223151 99 156 5.0 10.0 0.00 0.00 0.00 37 1012.1
20260902222707 100 140 5.0 8.0 0.00 0.00 0.00 37 1012.0
20260902221636 100 206 3.0 6.0 0.00 0.00 0.00 37 1012.2
20260902221149 100 180 1.0 7.0 0.00 0.00 0.00 39 1012.2
20260902220712 99 230 2.0 7.0 0.00 0.00 0.00 37 1012.3
20260902220124 99 171 2.0 7.0 0.00 0.00 0.00 37 1012.4
20260902215653 99 152 1.0 7.0 0.00 0.00 0.00 39 1012.3
20260902214631 99 152 6.0 12.0 0.00 0.00 0.00 38 1012.5
20260902214154 99 123 5.0 8.0 0.00 0.00 0.00 37 1012.4
20260902213708 99 98 3.0 8.0 0.00 0.00 0.00 37 1012.5
20260902213123 99 169 5.0 8.0 0.00 0.00 0.00 37 1012.6
20260902212645 99 257 4.0 7.0 0.00 0.00 0.00 36 1012.6
20260902212156 99 203 2.0 6.0 0.00 0.00 0.00 39 1012.6
20260902211706 98 84 2.0 11.0 0.00 0.00 0.00 39 1012.6
20260902211209 98 122 5.0 12.0 0.00 0.00 0.00 38 1012.7
20260902210215 98 138 4.0 7.0 0.00 0.00 0.00 39 1012.7